Clarksville, TX

2:15 PM CST on January 21, 2017 (GMT -0600)
Clarksville

Weather History for KLBR - November, 2013

Change the Weather History Date:

Tuesday, November 26, 2013

  Actual Average (KPRX) Record (KPRX)
Temperature  
Mean Temperature 44 °F -  
Max Temperature 52 °F 58 °F 75 °F (1997)
Min Temperature 36 °F 40 °F 28 °F (1996)
Degree Days  
Heating Degree Days 21    
Moisture  
Dew Point 32 °F    
Average Humidity 72    
Maximum Humidity 99    
Minimum Humidity 44    
Precipitation  
Precipitation 0.00 in - - ()
Sea Level Pressure  
Sea Level Pressure 30.16 in    
Wind  
Wind Speed 8 mph (NW)    
Max Wind Speed 20 mph    
Max Gust Speed 25 mph    
Visibility 8 miles    
Events      
Averages and records for this station are not official NWS values.
T = Trace of Precipitation, MM = Missing Value Source: NWS Daily Summary

Daily Weather History Graph

Daily Weather History Graph

Search for Another Location

Airport or City:

Trip Planner

Search our weather history database for the weather conditions in past years. The results will help you decide how hot, cold, wet, or windy it might be!

Date:

Astronomy

Nov. 26, 2013 Rise Set
Actual Time 7:02 AM CST 5:12 PM CST
Civil Twilight 6:35 AM CST 5:39 PM CST
Nautical Twilight 6:04 AM CST 6:10 PM CST
Astronomical Twilight 5:34 AM CST 6:40 PM CST
Moon 12:25 AM CST (11/26) 1:02 PM CST (11/26)
Length of Visible Light 11h 04m
Length of Day
10h 10m
Last Quarter, 41% of the Moon is Illuminated
Nov 26
Last Quarter
Dec 2
New
Dec 9
First Quarter
Dec 17
Full
Dec 25
Last Quarter

Hourly Weather History & Observations

Time (CST) Temp. Windchill Dew Point Humidity Pressure Visibility Wind Dir Wind Speed Gust Speed Precip Events Conditions
12:15 AM 36.5 °F 32.7 °F 36.0 °F 98% 30.14 in 3.0 mi North 4.6 mph - N/A   Overcast
12:35 AM 36.7 °F 32.0 °F 36.1 °F 98% 30.15 in 4.0 mi NNW 5.8 mph - N/A   Overcast
12:55 AM 36.9 °F 32.2 °F 36.3 °F 98% 30.14 in 4.0 mi NNW 5.8 mph - N/A   Overcast
1:15 AM 36.9 °F 32.2 °F 36.5 °F 99% 30.13 in 5.0 mi NNW 5.8 mph - N/A   Overcast
1:35 AM 36.9 °F 32.2 °F 36.3 °F 98% 30.12 in 5.0 mi NNW 5.8 mph - N/A   Overcast
1:55 AM 37.0 °F 33.3 °F 36.5 °F 98% 30.11 in 7.0 mi North 4.6 mph - N/A   Overcast
2:15 AM 36.9 °F 31.4 °F 36.1 °F 97% 30.13 in 7.0 mi NNW 6.9 mph - N/A   Overcast
2:35 AM 37.0 °F 33.3 °F 36.5 °F 98% 30.14 in 3.0 mi NNW 4.6 mph - N/A   Overcast
2:55 AM 36.9 °F 33.1 °F 36.1 °F 97% 30.14 in 2.0 mi NNW 4.6 mph - N/A   Overcast
3:15 AM 36.9 °F 33.1 °F 36.1 °F 97% 30.13 in 3.0 mi NW 4.6 mph - N/A   Overcast
3:35 AM 36.5 °F 29.7 °F 35.8 °F 97% 30.11 in 4.0 mi NW 9.2 mph - N/A   Overcast
3:55 AM 36.5 °F 31.0 °F 35.6 °F 97% 30.10 in 5.0 mi NW 6.9 mph - N/A   Overcast
4:15 AM 36.5 °F 31.0 °F 35.6 °F 97% 30.11 in 7.0 mi NNW 6.9 mph - N/A   Mostly Cloudy
4:35 AM 36.5 °F 31.8 °F 35.6 °F 97% 30.13 in 10.0 mi NW 5.8 mph - N/A   Mostly Cloudy
4:55 AM 36.5 °F 30.3 °F 35.6 °F 97% 30.15 in 7.0 mi NW 8.1 mph - N/A   Overcast
5:15 AM 36.7 °F 32.0 °F 35.6 °F 96% 30.14 in 7.0 mi NW 5.8 mph - N/A   Overcast
5:35 AM 36.5 °F 31.0 °F 35.1 °F 95% 30.15 in 7.0 mi NW 6.9 mph - N/A   Mostly Cloudy
5:55 AM 36.7 °F 31.2 °F 35.2 °F 95% 30.14 in 7.0 mi NW 6.9 mph - N/A   Overcast
6:15 AM 36.7 °F 30.5 °F 34.9 °F 93% 30.13 in 7.0 mi NW 8.1 mph - N/A   Overcast
6:35 AM 36.9 °F 31.4 °F 34.9 °F 93% 30.14 in 7.0 mi NNW 6.9 mph - N/A   Overcast
6:55 AM 36.9 °F 31.4 °F 34.9 °F 93% 30.13 in 7.0 mi North 6.9 mph - N/A   Overcast
7:15 AM 37.0 °F 34.5 °F 35.1 °F 93% 30.14 in 10.0 mi NNW 3.5 mph - N/A   Mostly Cloudy
7:35 AM 37.2 °F 32.6 °F 35.4 °F 93% 30.14 in 5.0 mi NW 5.8 mph - N/A   Mostly Cloudy
7:55 AM 37.4 °F 31.4 °F 35.6 °F 93% 30.13 in 5.0 mi NNW 8.1 mph - N/A   Scattered Clouds
8:15 AM 37.4 °F 30.8 °F 35.6 °F 93% 30.14 in 7.0 mi NNW 9.2 mph - N/A   Scattered Clouds
8:35 AM 37.8 °F 31.8 °F 35.6 °F 92% 30.16 in 5.0 mi NW 8.1 mph - N/A   Mostly Cloudy
8:55 AM 37.9 °F 32.7 °F 35.2 °F 90% 30.17 in 7.0 mi NW 6.9 mph - N/A   Overcast
9:15 AM 38.3 °F 34.8 °F 35.6 °F 90% 30.17 in 7.0 mi WNW 4.6 mph - N/A   Overcast
9:35 AM 38.7 °F 32.9 °F 35.6 °F 89% 30.17 in 10.0 mi NW 8.1 mph - N/A   Overcast
9:55 AM 39.2 °F 33.0 °F 35.2 °F 86% 30.16 in 7.0 mi NW 9.2 mph - N/A   Mostly Cloudy
10:15 AM 41.0 °F 34.3 °F 36.1 °F 83% 30.16 in 10.0 mi NNW 11.5 mph - N/A   Mostly Cloudy
10:35 AM 41.0 °F 35.2 °F 34.7 °F 78% 30.17 in 10.0 mi NNW 9.2 mph 17.3 mph N/A   Scattered Clouds
10:55 AM 41.7 °F 35.6 °F 34.2 °F 75% 30.16 in 10.0 mi NW 10.4 mph 17.3 mph N/A   Scattered Clouds
11:15 AM 42.8 °F 36.6 °F 33.3 °F 69% 30.15 in 10.0 mi NW 11.5 mph 16.1 mph N/A   Scattered Clouds
11:35 AM 44.2 °F 37.3 °F 33.8 °F 67% 30.13 in 10.0 mi NW 15.0 mph 24.2 mph N/A   Clear
11:55 AM 44.6 °F 37.8 °F 33.8 °F 66% 30.12 in 10.0 mi NW 15.0 mph 23.0 mph N/A   Scattered Clouds
12:15 PM 45.0 °F 38.2 °F 32.9 °F 63% 30.11 in 10.0 mi NW 15.0 mph 24.2 mph N/A   Scattered Clouds
12:35 PM 47.3 °F - 32.9 °F 57% 30.10 in 10.0 mi NNW 12.7 mph 24.2 mph N/A   Clear
12:55 PM 47.8 °F - 32.5 °F 55% 30.10 in 10.0 mi NNW 16.1 mph 20.7 mph N/A   Clear
1:15 PM 47.5 °F - 33.1 °F 57% 30.09 in 7.0 mi NW 12.7 mph 19.6 mph N/A   Clear
1:35 PM 48.4 °F - 32.2 °F 54% 30.09 in 7.0 mi NNW 11.5 mph 23.0 mph N/A   Clear
1:55 PM 49.5 °F - 32.2 °F 51% 30.09 in 7.0 mi NW 11.5 mph 17.3 mph N/A   Clear
2:15 PM 49.8 °F - 32.7 °F 52% 30.09 in 10.0 mi NNW 12.7 mph 18.4 mph N/A   Clear
2:35 PM 52.2 °F - 32.0 °F 46% 30.08 in 10.0 mi NNW 13.8 mph 18.4 mph N/A   Clear
2:55 PM 51.3 °F - 31.3 °F 46% 30.09 in 10.0 mi NW 12.7 mph 19.6 mph N/A   Clear
3:15 PM 51.1 °F - 31.1 °F 46% 30.09 in 10.0 mi NNW 9.2 mph 19.6 mph N/A   Clear
3:35 PM 50.9 °F - 30.0 °F 45% 30.10 in 10.0 mi NNW 19.6 mph 25.3 mph N/A   Clear
3:55 PM 50.4 °F - 29.3 °F 44% 30.11 in 10.0 mi NNW 11.5 mph 21.9 mph N/A   Clear
4:15 PM 49.6 °F - 29.8 °F 47% 30.12 in 7.0 mi NNW 8.1 mph 17.3 mph N/A   Clear
4:35 PM 49.1 °F - 31.3 °F 50% 30.13 in 10.0 mi NNW 9.2 mph - N/A   Clear
4:55 PM 48.4 °F - 30.7 °F 51% 30.13 in 10.0 mi NW 11.5 mph 17.3 mph N/A   Clear
5:15 PM 47.3 °F - 30.6 °F 52% 30.14 in 10.0 mi NW 8.1 mph - N/A   Clear
5:35 PM 46.4 °F 42.4 °F 30.2 °F 53% 30.15 in 10.0 mi NW 8.1 mph - N/A   Clear
5:55 PM 45.9 °F 41.7 °F 29.3 °F 52% 30.17 in 10.0 mi NW 8.1 mph - N/A   Clear
6:15 PM 45.3 °F 43.0 °F 28.9 °F 53% 30.18 in 10.0 mi NW 4.6 mph - N/A   Clear
6:35 PM 45.3 °F 40.6 °F 28.2 °F 51% 30.18 in 7.0 mi NW 9.2 mph 17.3 mph N/A   Clear
6:55 PM 44.6 °F 40.2 °F 27.9 °F 52% 30.19 in 7.0 mi NW 8.1 mph - N/A   Clear
7:15 PM 43.9 °F 39.9 °F 27.5 °F 53% 30.20 in 10.0 mi NW 6.9 mph - N/A   Clear
7:35 PM 43.7 °F 41.1 °F 27.5 °F 53% 30.21 in 10.0 mi NW 4.6 mph - N/A   Clear
7:55 PM 43.0 °F 40.3 °F 27.7 °F 55% 30.21 in 10.0 mi NW 4.6 mph - N/A   Clear
8:15 PM 43.5 °F 38.9 °F 27.5 °F 53% 30.22 in 10.0 mi NW 8.1 mph 17.3 mph N/A   Clear
8:35 PM 42.4 °F 36.5 °F 27.9 °F 56% 30.23 in 7.0 mi NNW 10.4 mph - N/A   Clear
8:55 PM 42.4 °F 37.0 °F 27.9 °F 56% 30.24 in 10.0 mi NNW 9.2 mph - N/A   Clear
9:15 PM 41.9 °F 34.3 °F 26.8 °F 55% 30.25 in 10.0 mi NW 15.0 mph 24.2 mph N/A   Clear
9:35 PM 40.6 °F 34.8 °F 25.5 °F 55% 30.27 in 10.0 mi NW 9.2 mph 19.6 mph N/A   Clear
9:55 PM 39.4 °F 31.1 °F 25.7 °F 58% 30.28 in 10.0 mi NW 15.0 mph 19.6 mph N/A   Clear
10:15 PM 38.3 °F 32.5 °F 25.7 °F 61% 30.29 in 10.0 mi NW 8.1 mph 17.3 mph N/A   Clear
10:35 PM 37.6 °F 31.0 °F 25.2 °F 61% 30.30 in 10.0 mi NNW 9.2 mph - N/A   Clear
10:55 PM 36.7 °F 29.4 °F 24.4 °F 61% 30.31 in 10.0 mi NNW 10.4 mph 18.4 mph N/A   Clear
11:15 PM 36.7 °F 29.9 °F 22.6 °F 57% 30.31 in 10.0 mi NNW 9.2 mph 20.7 mph N/A   Clear
11:35 PM 36.5 °F 28.2 °F 22.1 °F 56% 30.31 in 10.0 mi NW 12.7 mph 16.1 mph N/A   Clear
11:55 PM 36.0 °F 29.6 °F 22.1 °F 57% 30.32 in 10.0 mi NW 8.1 mph - N/A   Clear